#timestamp,LO_Frequency,Hit,StdDev 
1569834015.0,286047001.2,N
1569834015.9,286047001.2,N
1569834035.8,286046994.9,N
1569834055.6,286046998.3,N
1569834075.5,286047001.0,N
1569834095.3,286047001.2,N
1569834115.1,286046999.3,N
1569834135.9,286046997.2,N
1569834155.7,286046995.3,N
1569834175.5,286046993.5,N
1569834195.4,286046996.4,N
1569834215.2,286046995.8,N
1569834235.1,286046995.4,N
1569834236.0,286046995.4,N
1569834255.8,286046997.0,N
1569834275.6,286046997.6,N
1569834295.5,286046996.6,N
1569834315.3,286046997.6,N
1569834335.1,286047000.4,N
1569834355.9,286047003.4,N
1569834375.7,286047001.3,N
1569834395.6,286047003.9,N
1569834415.4,286047004.7,N
1569834435.2,286047006.5,N
1569834455.1,286047008.3,N
1569834456.0,286047008.3,N
1569834475.8,286047011.2,N
1569834495.7,286047015.1,Y
1569834515.5,286047014.8,P
1569834535.3,286047015.3,N
1569834555.2,286047013.3,N
1569834575.0,286047018.8,N
1569834575.9,286047018.8,N
1569834595.7,286047014.5,N
1569834615.6,286047011.4,N
1569834635.4,286047008.2,N
1569834655.3,286047006.6,N
1569834675.1,286047005.9,N
1569834676.0,286047005.9,N
1569834695.8,286047004.4,N
1569834715.7,286046999.6,N
1569834735.5,286046997.4,N
1569834755.3,286046999.5,N
1569834775.2,286046999.8,N
1569834795.0,286047002.4,N
1569834795.9,286047002.4,N
1569834815.8,286047005.7,N
1569834835.6,286047006.8,N
1569834855.4,286047008.1,N
1569834875.3,286047008.6,N
1569834895.1,286047007.4,N
1569834915.8,286047004.1,N
1569834935.7,286046998.4,N
1569834955.5,286047001.0,N
1569834975.4,286047001.0,N
1569834995.2,286046999.6,N
1569835015.0,286046996.4,N
1569835015.9,286046996.4,N
1569835035.8,286046993.0,N
1569835055.6,286046992.7,N
1569835075.5,286046992.3,N
1569835095.3,286046990.4,N
1569835115.1,286046994.8,N
1569835135.9,286046992.0,N
1569835155.7,286046993.8,N
1569835175.5,286046994.9,N
1569835195.4,286046996.2,N
1569835215.2,286046998.0,N
1569835235.1,286046997.1,N
1569835236.0,286046997.1,N
1569835255.8,286046993.4,N
1569835275.6,286046992.2,N
1569835295.5,286046992.0,N
1569835315.3,286046993.0,N
1569835335.2,286046991.5,N
1569835355.9,286046986.9,N
1569835375.7,286046987.9,N
1569835395.6,286046986.4,N
1569835415.4,286046984.9,N
1569835435.2,286046983.5,N
1569835455.1,286046981.4,Y
1569835456.0,286046981.4,P
1569835475.8,286046988.1,N
1569835495.7,286046987.5,N
1569835515.5,286046987.4,N
1569835535.3,286046989.7,N
1569835555.2,286046988.0,Y
1569835575.0,286047001.0,P
1569835575.9,286047001.0,N
1569835595.8,286046995.1,N
1569835615.6,286046997.3,N
1569835635.4,286046999.1,N
1569835655.3,286047005.9,N
1569835675.1,286047007.2,N
1569835695.8,286047009.0,N
1569835715.7,286047010.5,N
1569835735.5,286047009.2,N
1569835755.4,286047006.1,N
1569835775.2,286047006.6,N
1569835795.0,286047003.7,N
1569835795.9,286047003.7,N
1569835815.8,286047003.2,N
1569835835.6,286047003.5,N
1569835855.4,286047001.5,N
1569835875.3,286047005.6,N
1569835895.1,286047003.8,N
1569835915.9,286047001.0,N
1569835935.7,286047000.5,N
1569835955.5,286047001.8,N
1569835975.4,286047003.7,N
1569835995.2,286047004.5,N
1569836015.0,286047008.5,N
1569836015.9,286047008.5,N
1569836035.8,286047007.5,N
1569836055.6,286047006.6,N
1569836075.5,286047006.5,N
1569836095.3,286047006.1,N
1569836115.1,286047006.3,N
1569836135.9,286047006.5,N
1569836155.7,286047009.2,N
1569836175.6,286047010.8,Y
1569836195.4,286047002.9,P
1569836215.2,286047003.3,N
1569836235.1,286047000.3,N
1569836236.0,286047000.3,N
1569836255.8,286047000.7,N
1569836275.6,286046998.6,N
1569836295.5,286046999.6,N
1569836315.3,286046994.9,N
1569836335.2,286046999.5,N
1569836355.9,286046997.8,N
1569836375.7,286046999.0,N
1569836395.6,286046996.9,N
1569836415.4,286047000.8,N
1569836435.2,286047000.8,N
1569836455.1,286047002.7,N
1569836456.0,286047002.7,N
1569836475.8,286047003.0,N
1569836495.7,286047004.3,N
1569836515.5,286047005.3,N
1569836535.3,286047005.1,N
1569836555.2,286047002.9,N
1569836575.9,286046999.2,N
1569836595.7,286046997.9,N
1569836615.6,286046994.9,N
1569836635.4,286046993.8,N
1569836655.3,286046995.5,N
1569836675.1,286046996.4,N
1569836676.0,286046996.4,N
1569836695.8,286046993.3,N
1569836715.7,286046995.7,N
1569836735.5,286046999.6,N
1569836755.3,286047002.7,N
1569836775.2,286047003.8,N
1569836795.0,286047004.0,N
1569836795.9,286047004.0,N
1569836815.8,286047000.9,N
1569836835.6,286047005.4,N
1569836855.4,286047007.0,N
1569836875.3,286047003.5,N
1569836895.1,286047000.1,N
1569836915.8,286047000.7,N
1569836935.7,286046997.5,N
1569836955.5,286046993.9,N
1569836975.4,286046993.8,N
1569836995.2,286046994.5,N
1569837015.0,286046992.7,N
1569837015.9,286046992.7,N
1569837035.8,286046991.4,N
1569837055.6,286046987.7,N
1569837075.4,286046985.5,N
1569837095.3,286046984.4,Y
1569837115.1,286046986.2,P
1569837135.9,286046983.9,N
1569837155.7,286046983.3,N
1569837175.5,286046986.4,N
1569837195.4,286046985.9,N
1569837215.2,286046987.5,N
1569837235.0,286046994.7,N
1569837235.9,286046994.7,N
1569837255.8,286046994.8,N
1569837275.6,286046992.8,N
1569837295.5,286046988.6,N
1569837315.3,286046989.9,N
1569837335.1,286046990.4,N
1569837355.9,286046991.1,N
1569837375.7,286046990.6,N
1569837395.5,286046991.2,N
1569837415.4,286046990.5,N
1569837435.2,286046992.7,N
1569837455.1,286046991.2,N
1569837456.0,286046991.2,N
1569837475.8,286046991.5,N
1569837495.6,286046995.8,N
1569837515.5,286046996.6,N
1569837565.3,286047000.5,E
1569837575.3,286047000.7,N
1569837595.1,286047000.9,P
1569837596.0,286047000.9,P
